Location: Asheville, NC
(35.6000°N, 82.5500°W)
Time: 17:29:10

YUBILEINY - Pass Details

Date: 14 March 2018
Orbit: 1477 x 1509 km, 82.5° (Epoch: 18 March)

Event Time Altitude Azimuth Distance (km) Brightness Sun altitude
Rises 20:52:19 0° 237° (WSW) 4,593 ? -16.1°
Reaches altitude 10° 20:56:39 10° 257° (WSW) 3,614 ? -17.0°
Maximum altitude 21:01:46 17° 294° (WNW) 3,113 ? -18.0°
Drops below altitude 10° 21:06:56 10° 331° (NNW) 3,619 ? -19.0°
Sets 21:11:21 0° 352° (N) 4,604 ? -19.9°
